Regional Weather Roundup
Issued by NWS

Home | Current Version | Previous Version | Graphics & Text | Print | Product List | Glossary On
Versions: 1 2 3 4 5 6 7 8 9 10 11 12 13 14 15 16 17 18 19 20 21 22 23 24 25 26 27 28 29 30 31 32 33 34 35 36 37 38 39 40 41 42 43 44 45 46 47 48 49 50
000
ASUS45 KABQ 180710
RWRNM
WEATHER ROUNDUP FOR NEW MEXICO
NATIONAL WEATHER SERVICE ALBUQUERQUE NM
100 AM MDT THU SEP 18 2014

NOTE: "FAIR" MEANS FEW OR NO CLOUDS BELOW 12,000 FEET AGL WITH NO
       SIGNIFICANT WEATHER OR OBSTRUCTIONS TO VISION.

      THIS PRODUCT IS RELEASED AS TWO VERSIONS.  ONE VERSION NEAR
      THE TOP OF THE HOUR CONTAINING PRELIMINARY DATA FROM ALBUQUERQUE
      AND OTHER STATIONS.  A FINAL VERSION WITH ADDITIONAL DATA IS
      ISSUED ABOUT 10 MINUTES AFTER THE HOUR.

NMZ501-503-504-510>518-180800-
NORTHWEST PLATEAU/NORTHCENTRAL MOUNTAINS

CITY           SKY/WX    TMP DP  RH WIND       PRES   REMARKS
FARMINGTON     CLEAR     62  47  57 NE6       30.11S
LOS ALAMOS     PTCLDY    59  44  58 N3        30.22F
SANTA FE       PTCLDY    54  46  74 NW5       30.16S
TAOS           CLEAR     48  39  71 E6        30.24S
ANGEL FIRE     FAIR      31  28  89 CALM      30.33S

$$
NMZ402-403-502-505>509-180800-
WESTCENTRAL MOUNTAINS/SOUTHWEST MOUNTAINS

CITY           SKY/WX    TMP DP  RH WIND       PRES   REMARKS
GALLUP         CLEAR     54  42  64 NE5       30.15S
GRANTS         PTCLDY    48  46  93 CALM      30.18S
SILVER CITY    LGT RAIN  61  57  88 NE9       30.10F

$$
NMZ407-409-411-412-180800-
SOUTHERN DESERTS

CITY           SKY/WX    TMP DP  RH WIND       PRES   REMARKS
LORDSBURG      LGT RAIN  61  61 100 S3        30.00F
DEMING         LGT RAIN  64  63  96 E7        30.03S
LAS CRUCES     CLOUDY    66  64  93 N5        30.05S
HOLLOMAN AFB   CLOUDY    68  68 100 CALM      30.03F
ALAMOGORDO     CLOUDY    66  66 100 SW3       30.05S FOG
T OR C         LGT RAIN  66  62  87 SW3       30.08S

$$
NMZ519>523-180800-
CENTRAL VALLEYS/CENTRAL HIGHLANDS

CITY           SKY/WX    TMP DP  RH WIND       PRES   REMARKS
ALBUQUERQUE    CLOUDY    65  57  75 CALM      30.11S
DOUBLE EAGLE   MOCLDY    60  53  79 CALM      30.13F
MORIARTY ARPT  FAIR      57  54  89 N3        30.16S
CLINES CORNERS CLOUDY    59  51  75 N6        30.19S
BELEN          FAIR      62  60  91 NE3       30.09S
SOCORRO        MOCLDY    66  62  85 CALM      30.08S

$$
NMZ524>526-539-540-180800-
SOUTHCENTRAL MOUNTAINS

CITY           SKY/WX    TMP DP  RH WIND       PRES   REMARKS
RUIDOSO        CLOUDY    59  57  94 SW6       30.20F

$$
NMZ527>531-180800-
NORTHEAST HIGHLANDS/NORTHEAST PLAINS

CITY           SKY/WX    TMP DP  RH WIND       PRES   REMARKS
LAS VEGAS      PTCLDY    51  45  79 NE6       30.20S
RATON          CLEAR     50  47  89 N5        30.16S
CLAYTON        CLEAR     59  51  75 W9        30.07S

$$
NMZ532>537-180800-
EASTCENTRAL PLAINS

CITY           SKY/WX    TMP DP  RH WIND       PRES   REMARKS
TUCUMCARI      MOCLDY    64  59  83 SE5       30.04R
CANNON AFB     MOCLDY    64  61  88 S3        30.06F
CLOVIS AIRPORT   N/A     63  61  94 S10       30.07F

$$
NMZ028-029-538-180800-
SOUTHEAST PLAINS

CITY           SKY/WX    TMP DP  RH WIND       PRES   REMARKS
ROSWELL        CLOUDY    68  65  90 E6        30.01R
CARLSBAD       LGT RAIN  70 N/A N/A NW5       29.99R
HOBBS          CLOUDY    66  66 100 E9        30.03R


$$



USA.gov is the U.S. government's official web portal to all federal, state and local government web resources and services.